STARLINK-30772, 58135

Orbit data source: Space-Track

STARLINK-30772, 58135 is a payload satellite owned by SpaceX/Seattle (US) in LEO that was launched on Sun, 22 Oct 2023 UTC via an FALCON 9 launch vehicle from the Air Force Eastern Test Range (AFETR). Payload-class satellites include a variety of spacecraft equipped with specific instruments for various scientific and technological missions. These include communications satellites like Starlink; space stations such as the ISS; scientific satellites like the Hubble; Earth observation satellites from companies like Planet Labs, Umbra, and HawkEye 360; GPS; miniature CubeSats for education and research; and military/defense satellites.

Loading next visibility...
Identifier
58135, 2023-162T
Orbit
LEO
Country
Flag of USUS
Related business
Manufacturer
SpaceX/Seattle
Mission
Operational Commercial Communications
Bus & Motor
STARLINK V2M, Unknown motor
Mass
730 kg wet, ~700 kg dry
Launch date (UTC)
2023-10-22 (3 years ago)
Launch vehicle
FALCON 9
Launch site
Air Force Eastern Test Range (AFETR)
Object type
Payload
Rocket body
Debris
Shape & HBR
Box + 2 Pan, 17.7 m
Radar Cross Section
33.884 m², Large (>1 m²)

Expand to show TLE details & history
Last TLE update: 2 days ago

TLE from 2 days ago
0 STARLINK-30772
1 58135U 23162T   26171.31768639  .00003264  00000-0  12802-3 0  9997
2 58135  43.0019 272.8158 0001106 246.7853 113.2882 15.27594997148003
Epoch: 2026-06-20T07:37Z
TLE epoch observation values (Epoch: 2026-06-20T07:37:28.104Z)
Latitude
-0.00002°
Longitude
-110.08536°
Altitude
483.08 km
Speed
7.626 km/s
True Right ascension
18h 11m 15s
True Declination
0° 00' 00"
Sunlit
Object was in full shadow at epoch
Visualization orbit readout
Latitude
Unknown
Longitude
Unknown
Altitude
Unknown
Speed
Unknown
Apparent Right ascension
Unknown
Apparent Declination
Unknown
Sunlit
N/A
Visualization observer readout
Local Sidereal Time
21:42:56
Azimuth
Unknown
Elevation
Unknown
Doppler factor
Unknown
Orbital elements
Apogee altitude
485.708 km
Perigee altitude
484.19 km
Semi-major axis
6,863.086 km
Eccentricity
0.00011
Inclination
43.0019°
RAAN
272.8158°
Arg. of periapsis
246.7853°
True anomaly
113.29984°
Mean anomaly
113.2882°
Eccentric anomaly
113.29402°
Mean motion
3.81737 °/min
Orbital period
94.31 mins
BSTAR
0.00012802
Loading maneuver chart data...
Computing Atmospheric mass density...
Loading historical data...
Loading historical data...
Loading historical data...
Loading historical data...
Loading historical data...
Loading historical data...
Loading historical data...

Documentation

Showing up to 5 results
|